Wind_Speed
10 10 9 10 11 13 12 13 14 12 16 16 21 18 17 25 19 17 16 14 11 12
10 9 10 11 11 12 13 12 11 15 15 19 21 16 21 27 20 18 16 15 13 13
10 9 10 10 10 13 13 11 13 15 15 20 18 18 27 26 20 19 16 16 16 14
9 9 10 10 12 14 12 12 12 13 16 20 17 21 28 25 21 19 20 19 18 13
8 8 10 12 13 13 12 12 13 11 17 19 16 24 26 25 23 22 20 17 11 12
7 10 11 13 13 13 13 12 10 12 16 17 19 24 26 22 22 21 15 13 12 12
8 11 12 13 13 13 13 12 6 13 14 16 20 24 25 22 19 18 13 14 14 16
9 11 13 14 14 14 14 10 9 12 13 20 20 23 24 21 17 15 15 16 17 17
11 13 14 15 16 15 13 8 10 11 14 20 19 23 23 20 17 15 15 17 20 20
11 13 14 17 18 16 17 11 12 13 16 23 21 22 23 22 16 16 16 18 21 22
12 14 15 16 16 16 18 19 15 16 20 25 20 22 24 22 18 18 17 19 20 22
12 14 15 16 16 15 15 16 17 18 21 23 21 22 25 23 21 20 20 18 20 21
12 15 16 15 16 16 14 15 19 19 19 20 23 22 25 23 21 19 19 19 21 20
13 17 19 18 19 19 19 18 22 23 22 24 24 24 24 23 23 20 17 19 23 24
Wind_Direction
58 53 48 40 34 21 19 14 9 7 0 358 351 351 359 353 347 346 348 342 331 314
56 48 46 36 25 23 16 14 12 2 359 354 355 357 354 353 353 352 353 346 331 318
55 51 36 28 26 24 14 16 4 359 357 355 358 2 354 356 358 353 350 341 327 314
53 40 32 23 22 21 11 12 1 358 356 357 358 0 357 358 356 353 343 337 328 322
57 35 29 24 22 15 10 5 359 360 1 358 1 357 359 355 355 351 342 344 342 334
60 41 31 24 18 11 13 0 3 4 4 3 1 359 358 353 353 356 359 348 335 330
53 43 34 27 18 14 6 2 34 6 10 14 7 0 356 354 351 358 358 350 343 335
49 39 34 26 21 14 8 23 14 10 20 16 14 1 355 353 349 357 355 354 348 342
40 40 33 27 15 15 31 45 18 26 27 13 12 1 357 352 353 358 353 343 345 344
42 37 32 35 36 44 39 35 35 40 21 9 12 4 359 356 1 358 353 342 338 344
45 46 50 40 46 44 47 55 50 30 13 8 17 5 1 360 8 4 1 351 350 350
58 52 42 42 42 36 37 46 36 25 17 17 19 1 1 357 3 353 3 359 360 357
61 43 43 44 40 34 39 40 36 30 31 21 21 11 3 3 8 358 356 357 3 3
56 56 59 59 52 47 48 49 45 38 33 30 22 16 6 9 13 8 359 3 2 5
Height
863 861 862 860 858 857 854 853 850 848 846 843 839 835 830 829 825 820 816 813 811 810
864 863 862 860 860 857 855 853 850 848 845 843 838 834 830 827 821 817 814 811 809 807
865 865 864 862 860 856 855 853 851 848 845 842 838 833 830 825 819 815 812 810 807 805
867 865 864 864 860 856 855 853 849 847 846 842 837 832 829 824 819 814 811 808 804 802
865 867 864 863 860 856 855 854 850 847 845 842 836 833 829 823 818 814 809 806 803 801
867 865 864 862 859 857 854 852 849 848 844 841 836 833 828 823 817 813 809 806 803 799
869 864 863 860 858 857 854 851 850 848 844 840 837 833 827 822 817 813 809 806 801 797
870 866 863 861 859 857 854 851 850 848 844 840 837 832 827 822 817 813 809 804 800 795
872 867 864 862 860 858 854 852 852 848 844 841 837 833 827 822 817 812 808 803 798 793
873 869 867 863 861 859 856 852 853 849 846 842 837 833 827 822 816 812 807 802 797 791
874 871 868 865 863 862 858 853 853 850 847 842 837 833 828 822 816 811 807 802 797 791
876 874 870 868 866 864 861 857 853 851 848 842 838 833 829 822 817 812 807 802 797 791
878 874 870 870 867 865 862 860 854 853 849 845 840 834 830 824 818 812 807 802 797 791
879 876 873 872 869 868 865 862 857 855 851 847 842 836 832 826 820 814 809 804 798 792